EW2730 Weather Reports


Display with metric or nautical units.
time (UTC)temp
F
wind
direction
speed
MPH
gust
MPH
rain 1hr
in
rain 24hr
in
rain mn
in
humidity
%
barometer
mb
20180723151539 79 188 6.0 11.0 0.00 0.14 0.02 77
20180723150033 78 196 3.0 8.0 0.00 0.14 0.02 78
20180723144526 76 159 4.0 9.0 0.00 0.16 0.02 82
20180723143026 75 171 4.0 9.0 0.00 0.16 0.02 84
20180723141522 74 166 3.0 8.0 0.00 0.16 0.02 88
20180723140014 74 174 5.0 11.0 0.00 0.16 0.02 86
20180723134510 74 202 4.0 11.0 0.00 0.17 0.02 86
20180723133003 72 175 3.0 9.0 0.00 0.17 0.02 89
20180723131504 72 182 1.0 7.0 0.00 0.17 0.02 91
20180723125954 72 109 1.0 11.0 0.00 0.17 0.02 91
20180723124450 72 49 1.0 8.0 0.01 0.17 0.02 93
20180723122946 71 78 4.0 9.0 0.01 0.17 0.02 94
20180723121446 70 85 1.0 4.0 0.01 0.17 0.02 94
20180723115938 70 85 1.0 5.0 0.01 0.17 0.02 95
20180723114432 70 88 1.0 3.0 0.00 0.16 0.01 94
20180723112927 69 69 3.0 5.0 0.00 0.16 0.01 95
20180723111422 69 71 4.0 7.0 0.00 0.16 0.01 95
20180723105920 69 95 5.0 8.0 0.00 0.16 0.01 95
20180723104417 68 64 3.0 8.0 0.00 0.16 0.01 96
20180723102910 68 85 1.0 7.0 0.00 0.16 0.01 96
20180723101407 68 77 4.0 7.0 0.00 0.16 0.01 96
20180723095900 68 75 5.0 10.0 0.00 0.16 0.01 96
20180723094355 68 80 6.0 10.0 0.00 0.16 0.01 95
20180723092851 68 69 9.0 12.0 0.00 0.16 0.01 95
20180723091346 68 73 8.0 15.0 0.00 0.16 0.01 95
20180723085840 68 56 8.0 13.0 0.00 0.16 0.01 95
20180723084336 68 61 8.0 14.0 0.00 0.16 0.01 95
20180723082831 68 63 7.0 12.0 0.00 0.16 0.01 94
20180723081330 68 45 6.0 11.0 0.00 0.16 0.01 93
20180723075822 68 80 6.0 10.0 0.00 0.18 0.01 93
20180723074320 68 43 9.0 13.0 0.00 0.18 0.01 94
20180723072813 68 63 8.0 14.0 0.01 0.18 0.01 94
20180723071318 68 55 8.0 15.0 0.01 0.18 0.01 94
20180723065805 68 75 4.0 13.0 0.01 0.18 0.01 94
20180723064259 68 68 9.0 13.0 0.01 0.18 0.01 94
20180723062756 68 62 9.0 13.0 0.00 0.17 0.00 94
20180723061249 68 52 9.0 14.0 0.00 0.17 0.00 94
20180723055747 68 60 8.0 11.0 0.00 0.17 0.00 94
20180723054244 68 52 8.0 13.0 0.00 0.17 0.00 94
20180723052735 68 55 8.0 13.0 0.00 0.17 0.00 94
20180723051233 68 49 8.0 13.0 0.00 0.17 0.00 94
20180723045726 68 68 6.0 10.0 0.00 0.17 0.00 95
20180723044226 68 72 4.0 11.0 0.00 0.17 0.00 95
20180723042719 68 52 7.0 10.0 0.00 0.17 0.00 95
20180723041216 68 62 3.0 9.0 0.00 0.17 0.00 95
20180723035711 68 100 6.0 11.0 0.00 0.17 0.17 95
20180723034215 68 59 7.0 10.0 0.01 0.17 0.17 95
20180723032710 68 46 5.0 11.0 0.01 0.17 0.17 94
20180723031211 69 82 9.0 14.0 0.01 0.17 0.17 92
20180723025708 69 74 6.0 11.0 0.01 0.17 0.17 88
20180723024209 69 73 6.0 9.0 0.00 0.16 0.16 90
20180723022706 68 83 3.0 8.0 0.00 0.16 0.16 91
20180723021206 68 70 5.0 8.0 0.00 0.16 0.16 91
20180723015707 69 71 7.0 11.0 0.00 0.16 0.16 92
20180723014204 68 62 5.0 10.0 0.00 0.16 0.16 93
20180723012706 68 61 6.0 8.0 0.01 0.16 0.16 94
20180723011204 68 61 5.0 7.0 0.01 0.16 0.16 94
20180723005707 68 65 5.0 8.0 0.01 0.16 0.16 92
20180723004203 68 61 6.0 9.0 0.01 0.16 0.16 91
20180723002705 69 80 5.0 10.0 0.00 0.15 0.15 90
20180723001203 69 67 5.0 10.0 0.00 0.15 0.15 89
20180722235659 70 69 7.0 13.0 0.00 0.15 0.15 89
20180722234158 70 77 8.0 15.0 0.01 0.15 0.15 89
20180722232658 69 79 8.0 12.0 0.01 0.15 0.15 91
20180722231200 69 80 6.0 10.0 0.01 0.15 0.15 91
20180722225654 69 69 6.0 11.0 0.01 0.15 0.15 91
20180722224150 69 88 6.0 11.0 0.00 0.14 0.14 92
20180722222644 69 98 3.0 9.0 0.01 0.14 0.14 94
20180722221142 69 63 6.0 11.0 0.01 0.14 0.14 94
20180722215634 68 89 8.0 13.0 0.01 0.14 0.14 94
20180722214130 68 62 7.0 19.0 0.01 0.14 0.14 95
20180722212625 67 60 14.0 22.0 0.00 0.13 0.13 95
20180722211120 67 69 16.0 27.0 0.01 0.13 0.13 95
20180722205618 67 59 12.0 23.0 0.01 0.13 0.13 95
20180722204113 67 35 14.0 18.0 0.01 0.13 0.13 95
20180722202607 67 60 15.0 26.0 0.01 0.13 0.13 95
20180722201104 67 54 12.0 24.0 0.01 0.12 0.12 95
20180722195558 67 53 13.0 19.0 0.01 0.12 0.12 95
20180722194055 67 57 12.0 19.0 0.01 0.12 0.12 96
20180722192549 67 53 12.0 18.0 0.02 0.12 0.12 96
20180722191044 67 63 12.0 21.0 0.01 0.11 0.11 96
20180722185538 66 68 12.0 22.0 0.01 0.11 0.11 96
20180722184036 66 39 13.0 19.0 0.01 0.11 0.11 95
20180722182534 66 59 10.0 18.0 0.01 0.10 0.10 95
20180722181032 66 48 12.0 19.0 0.01 0.10 0.10 95
20180722175527 66 47 12.0 21.0 0.02 0.10 0.10 95
20180722174026 65 44 12.0 20.0 0.02 0.10 0.10 95
20180722172525 65 19 16.0 20.0 0.01 0.09 0.09 95
20180722171018 65 39 13.0 18.0 0.02 0.09 0.09 95
20180722165516 64 13 11.0 19.0 0.02 0.08 0.08 95
20180722164012 65 38 11.0 19.0 0.02 0.08 0.08 95
20180722162512 64 360 12.0 21.0 0.02 0.08 0.08 94
20180722161005 64 39 11.0 19.0 0.02 0.07 0.07 94
20180722155505 64 29 11.0 16.0 0.02 0.06 0.06 94
20180722153958 63 19 10.0 15.0 0.02 0.06 0.06 94